Regional Weather Roundup
Issued by NWS Burlington, VT

Home | Current Version | Previous Version | Text Only | Print | Product List | Glossary On
Versions: 1 2 3 4 5 6 7 8 9 10 11 12 13 14 15 16 17 18 19 20 21 22 23 24 25 26 27 28 29 30 31 32 33 34 35 36 37 38 39 40 41 42 43 44 45 46 47 48 49 50
000
ASUS41 KBTV 010230
RWRBTV
VERMONT REGIONAL WEATHER ROUNDUP
NATIONAL WEATHER SERVICE BURLINGTON VT
1000 PM EDT THU JUL 31 2014

NOTE: "FAIR" INDICATES FEW OR NO CLOUDS BELOW 12,000 FEET WITH NO
SIGNIFICANT WEATHER AND/OR OBSTRUCTIONS TO VISIBILITY.

* THESE REPORTS ARE NOT UNDER NWS QUALITY CONTROL AND/OR DO NOT
  REPORT WEATHER SUCH AS PRECIPITATION AND FOG.

VTZ001>019-010300-
_____VERMONT_____


CITY           SKY/WX    TMP DP  RH WIND       PRES   REMARKS
BURLINGTON     CLEAR     63  60  90 CALM      30.09R
MONTPELIER     CLEAR     57  55  93 SW3       30.16R
ST. JOHNSBURY*   N/A     60  58  92 MISG      30.11R
LYNDONVILLE*   FAIR      58  54  86 CALM      30.15S
MIDDLEBURY*    CLOUDY    67  63  86 SE3       30.11S
RUTLAND*       MOCLDY    63  57  82 SE6       30.13S
SPRINGFIELD    PTCLDY    60  59  96 CALM      30.15S FOG
HIGHGATE*      FAIR      61  59  92 SE5       30.08S
NEWPORT*       FAIR      56  56  98 S7        30.13R
BENNINGTON     MOCLDY    59  58  96 CALM      30.15R FOG
MT. MANSFIELD*   N/A     54 N/A N/A W15G26      N/A

_____LAKE CHAMPLAIN_____


CITY           SKY/WX    TMP DP  RH WIND       PRES   REMARKS
COLCHESTER RF*   N/A     68  63  83 SW6         N/A
DIAMOND ISL*     N/A     68  63  83 S5          N/A

$$

NYZ007-026>031-035-052-083-010300-
_____NORTHERN NEW YORK_____


CITY           SKY/WX    TMP DP  RH WIND       PRES   REMARKS
PLATTSBURGH    CLEAR     59  58  96 CALM      30.08R FOG
SARANAC LAKE   CLEAR     52  51  97 CALM      30.11R
MASSENA        CLEAR     56  55  97 CALM      30.06R
OGDENSBURG*    CLEAR     61  57  88 S6        30.06S
POTSDAM*       CLEAR     61  57  88 SW5       30.07S
WATERTOWN      CLEAR     64  55  72 S5        30.07R
FT DRUM        CLEAR     62  56  80 S7        30.08R
ALBANY         PTCLDY    68  64  87 CALM      30.12R
GLENS FALLS    PTCLDY    65  61  87 CALM      30.12R

$$
NHZ002-005-011-010300-
_____NEW HAMPSHIRE_____


CITY           SKY/WX    TMP DP  RH WIND       PRES   REMARKS
LEBANON        CLEAR     62  59  90 CALM      30.13R
KEENE          MOCLDY    63  55  77 CALM      30.16S
MT WASHINGTON  FOG       45  45 100 W29         N/A  VSB 0
PLYMOUTH       FAIR      58  56  94 CALM      30.14S FOG
WHITEFIELD     CLEAR     56  54  93 CALM      30.14S FOG

$$

_____REGIONAL QUEBEC LOCATIONS_____


CITY           SKY/WX    TMP DP  RH WIND       PRES   REMARKS
MONTREAL       PTCLDY    64  59  82 SE8       30.06R
QUEBEC CITY    MOCLDY    61  59  94 W3        30.08R
SHERBROOKE     CLEAR     55  55 100 E2        30.11R

_____REGIONAL ONTARIO LOCATIONS_____


CITY           SKY/WX    TMP DP  RH WIND       PRES   REMARKS
OTTAWA         CLEAR     63  57  82 S6        30.03R

______KEY______
VSB  - VISIBILITY IN MILES
WCI  - WIND CHILL INDEX
HX   - HEAT INDEX
$$



USA.gov is the U.S. government's official web portal to all federal, state and local government web resources and services.